Location: Bartshausen
(51.8454°N, 9.8167°E)
Time: 09:38:24
(UTC+00:00)

SL-16 R/B - Pass Details

Date: 08 November 2025
Orbit: 841 x 844 km, 71.0° (Epoch: 12 December)

Event Time Altitude Azimuth Distance (km) Brightness Sun altitude
Exits shadow 04:06:05 26° 326° (NNW) 1,614 3.4 -22.0°
Drops below altitude 10° 04:10:30 10° 17° (NNE) 2,477 4.8 -21.3°
Sets 04:13:23 0° 31° (NNE) 3,415 5.8 -20.9°
